IRA958T GQNO-GABS

Flight info

Callsign IRA958T
Flight time 1h 45m
Altitude 35000
Route KETAS UA600 TOBAS TOBAS5D
Aircraft A320/M-SDE3FGHIRWY/LB1

Departure

Time 2026-04-24 10:47
Airport Nouakchott–Oumtounsy International Airport (GQNO)

Arrival

Time 2026-04-24 12:33
Airport Modibo Keita International Airport (GABS)
Time Latitude Longitude Altitude Speed Heading
2026-04-24 10:39 18.29361 -15.95543 12 ft 0 kts 330°
2026-04-24 10:41 18.29346 -15.95534 13 ft 2 kts 330°
2026-04-24 10:41 18.29331 -15.95526 12 ft 2 kts 302°
2026-04-24 10:42 18.29326 -15.95509 15 ft 2 kts 277°
2026-04-24 10:42 18.29329 -15.95493 13 ft 2 kts 210°
2026-04-24 10:42 18.29331 -15.95491 13 ft 0 kts 209°
2026-04-24 10:45 18.29323 -15.95496 13 ft 4 kts 209°
2026-04-24 10:45 18.29276 -15.95526 12 ft 12 kts 221°
2026-04-24 10:45 18.29221 -15.95612 10 ft 16 kts 240°
2026-04-24 10:45 18.29166 -15.95714 10 ft 17 kts 240°
2026-04-24 10:46 18.29130 -15.95822 8 ft 11 kts 300°
2026-04-24 10:46 18.29167 -15.95841 10 ft 4 kts 327°
2026-04-24 10:46 18.29189 -15.95856 8 ft 7 kts 327°
2026-04-24 10:46 18.29416 -15.96011 6 ft 75 kts 327°
2026-04-24 10:47 18.29810 -15.96247 11 ft 116 kts 332°
2026-04-24 10:47 18.30990 -15.96967 67 ft 171 kts 328°
2026-04-24 10:47 18.31665 -15.97396 524 ft 166 kts 326°
2026-04-24 10:47 18.32536 -15.98185 1079 ft 165 kts 310°
2026-04-24 10:48 18.33162 -15.99183 1611 ft 163 kts 294°
2026-04-24 10:48 18.33391 -16.00333 2097 ft 162 kts 269°
2026-04-24 10:48 18.33389 -16.01579 2314 ft 181 kts 261°
2026-04-24 10:48 18.32719 -16.02731 2464 ft 200 kts 213°
2026-04-24 10:49 18.31310 -16.03047 2685 ft 224 kts 172°
2026-04-24 10:49 18.29732 -16.02589 3056 ft 247 kts 159°
2026-04-24 10:49 18.28113 -16.01880 3749 ft 255 kts 156°
2026-04-24 10:49 18.26470 -16.01135 4575 ft 259 kts 157°
2026-04-24 10:50 18.24793 -16.00414 5397 ft 262 kts 158°
2026-04-24 10:50 18.23078 -15.99729 6215 ft 265 kts 160°
2026-04-24 10:50 18.21330 -15.99070 7018 ft 268 kts 161°
2026-04-24 10:50 18.19555 -15.98428 7798 ft 272 kts 161°
2026-04-24 10:51 18.17751 -15.97794 8563 ft 275 kts 161°
2026-04-24 10:51 18.15924 -15.97161 9331 ft 278 kts 162°
2026-04-24 10:51 18.14078 -15.96526 10081 ft 281 kts 162°
2026-04-24 10:51 18.12178 -15.95866 10524 ft 298 kts 160°
2026-04-24 10:52 18.10249 -15.94886 10765 ft 319 kts 147°
2026-04-24 10:52 18.08485 -15.93427 11333 ft 326 kts 135°
2026-04-24 10:52 18.07028 -15.91581 12008 ft 331 kts 124°
2026-04-24 10:52 18.05723 -15.89577 12694 ft 334 kts 124°
2026-04-24 10:53 18.04404 -15.87557 13354 ft 337 kts 124°
2026-04-24 10:53 18.03068 -15.85518 14004 ft 340 kts 124°
2026-04-24 10:53 18.01719 -15.83464 14636 ft 343 kts 124°
2026-04-24 10:53 18.00355 -15.81387 15236 ft 347 kts 124°
2026-04-24 10:54 17.98980 -15.79292 15832 ft 350 kts 124°
2026-04-24 10:54 17.97595 -15.77181 16409 ft 353 kts 124°
2026-04-24 10:54 17.96199 -15.75053 16973 ft 356 kts 124°
2026-04-24 10:54 17.94791 -15.72905 17527 ft 358 kts 124°
2026-04-24 10:55 17.93373 -15.70740 18069 ft 361 kts 124°
2026-04-24 10:55 17.91942 -15.68557 18602 ft 364 kts 124°
2026-04-24 10:55 17.90500 -15.66359 19127 ft 367 kts 124°
2026-04-24 10:55 17.89065 -15.64172 19636 ft 370 kts 124°
2026-04-24 10:56 17.87600 -15.61940 20143 ft 373 kts 124°
2026-04-24 10:56 17.86102 -15.59662 20647 ft 376 kts 124°
2026-04-24 10:56 17.84609 -15.57399 21142 ft 378 kts 124°
2026-04-24 10:56 17.83105 -15.55122 21632 ft 381 kts 124°
2026-04-24 10:57 17.81592 -15.52828 22098 ft 384 kts 124°
2026-04-24 10:57 17.80071 -15.50516 22558 ft 387 kts 124°
2026-04-24 10:57 17.78539 -15.48182 23006 ft 389 kts 124°
2026-04-24 10:57 17.76996 -15.45836 23437 ft 392 kts 124°
2026-04-24 10:58 17.75442 -15.43476 23856 ft 394 kts 124°
2026-04-24 10:58 17.73879 -15.41105 24265 ft 397 kts 124°
2026-04-24 10:58 17.72304 -15.38716 24656 ft 399 kts 124°
2026-04-24 10:58 17.70722 -15.36315 25031 ft 402 kts 124°
2026-04-24 10:59 17.69129 -15.33897 25398 ft 404 kts 124°
2026-04-24 10:59 17.67528 -15.31466 25747 ft 406 kts 124°
2026-04-24 10:59 17.65919 -15.29023 26097 ft 408 kts 124°
2026-04-24 10:59 17.64301 -15.26570 26423 ft 410 kts 124°
2026-04-24 11:00 17.62671 -15.24105 26759 ft 412 kts 124°
2026-04-24 11:00 17.61030 -15.21631 27082 ft 414 kts 124°
2026-04-24 11:00 17.59380 -15.19143 27398 ft 416 kts 124°
2026-04-24 11:00 17.57725 -15.16642 27704 ft 418 kts 124°
2026-04-24 11:01 17.56065 -15.14132 28003 ft 420 kts 124°
2026-04-24 11:01 17.54393 -15.11608 28302 ft 422 kts 124°
2026-04-24 11:01 17.52714 -15.09076 28586 ft 424 kts 124°
2026-04-24 11:01 17.51027 -15.06531 28859 ft 426 kts 124°
2026-04-24 11:02 17.49336 -15.03980 29128 ft 428 kts 124°
2026-04-24 11:02 17.47633 -15.01413 29391 ft 429 kts 124°
2026-04-24 11:02 17.45947 -14.98870 29598 ft 432 kts 124°
2026-04-24 11:02 17.44201 -14.96237 29723 ft 437 kts 124°
2026-04-24 11:03 17.42482 -14.93645 29850 ft 441 kts 124°
2026-04-24 11:03 17.40724 -14.90998 29980 ft 444 kts 124°
2026-04-24 11:03 17.38934 -14.88302 30187 ft 445 kts 124°
2026-04-24 11:03 17.37168 -14.85639 30440 ft 445 kts 124°
2026-04-24 11:04 17.35403 -14.82978 30703 ft 445 kts 124°
2026-04-24 11:04 17.33639 -14.80323 30964 ft 444 kts 125°
2026-04-24 11:04 17.31874 -14.77669 31222 ft 444 kts 125°
2026-04-24 11:04 17.30112 -14.75023 31478 ft 443 kts 125°
2026-04-24 11:05 17.28353 -14.72379 31736 ft 442 kts 124°
2026-04-24 11:05 17.26598 -14.69737 31992 ft 442 kts 125°
2026-04-24 11:05 17.24840 -14.67103 32246 ft 441 kts 125°
2026-04-24 11:05 17.23081 -14.64477 32496 ft 441 kts 125°
2026-04-24 11:06 17.21346 -14.61884 32736 ft 440 kts 125°
2026-04-24 11:06 17.19595 -14.59260 32979 ft 440 kts 125°
2026-04-24 11:06 17.17822 -14.56604 33222 ft 439 kts 125°
2026-04-24 11:06 17.16075 -14.53983 33460 ft 439 kts 125°
2026-04-24 11:07 17.12586 -14.48761 33931 ft 438 kts 125°
2026-04-24 11:07 17.10842 -14.46149 34165 ft 437 kts 125°
2026-04-24 11:07 17.09105 -14.43543 34397 ft 437 kts 125°
2026-04-24 11:08 17.07367 -14.40938 34626 ft 436 kts 125°
2026-04-24 11:08 17.05630 -14.38341 34845 ft 436 kts 125°
2026-04-24 11:08 17.03893 -14.35748 34979 ft 436 kts 125°
2026-04-24 11:08 17.02151 -14.33156 35009 ft 436 kts 125°
2026-04-24 11:09 16.98673 -14.27976 35012 ft 435 kts 125°
2026-04-24 11:09 16.95200 -14.22796 35015 ft 435 kts 125°
2026-04-24 11:10 16.91728 -14.17619 35015 ft 435 kts 125°
2026-04-24 11:10 16.88255 -14.12444 35012 ft 435 kts 125°
2026-04-24 11:11 16.84778 -14.07272 35006 ft 435 kts 125°
2026-04-24 11:11 16.81300 -14.02101 35011 ft 435 kts 125°
2026-04-24 11:12 16.77824 -13.96930 35012 ft 435 kts 125°
2026-04-24 11:12 16.74347 -13.91760 35010 ft 435 kts 125°
2026-04-24 11:13 16.70858 -13.86601 35003 ft 435 kts 125°
2026-04-24 11:13 16.67372 -13.81442 35002 ft 435 kts 125°
2026-04-24 11:14 16.63895 -13.76278 35006 ft 435 kts 125°
2026-04-24 11:14 16.60421 -13.71117 35007 ft 435 kts 125°
2026-04-24 11:15 16.56938 -13.65966 35002 ft 435 kts 125°
2026-04-24 11:15 16.53454 -13.60817 34995 ft 435 kts 125°
2026-04-24 11:16 16.49969 -13.55670 34996 ft 434 kts 125°
2026-04-24 11:16 16.46481 -13.50527 35004 ft 434 kts 125°
2026-04-24 11:17 16.43022 -13.45421 34995 ft 434 kts 125°
2026-04-24 11:17 16.39504 -13.40250 34992 ft 435 kts 125°
2026-04-24 11:18 16.36012 -13.35111 34997 ft 435 kts 125°
2026-04-24 11:18 16.32541 -13.30006 34997 ft 435 kts 125°
2026-04-24 11:19 16.29046 -13.24865 34995 ft 435 kts 125°
2026-04-24 11:19 16.25546 -13.19723 35000 ft 435 kts 125°
2026-04-24 11:20 16.22052 -13.14579 35005 ft 435 kts 125°
2026-04-24 11:20 16.18548 -13.09447 35009 ft 435 kts 125°
2026-04-24 11:21 16.15045 -13.04323 35000 ft 434 kts 125°
2026-04-24 11:21 16.11550 -12.99198 34999 ft 434 kts 125°
2026-04-24 11:22 16.08059 -12.94068 35001 ft 435 kts 125°
2026-04-24 11:22 16.04559 -12.88947 35002 ft 435 kts 125°
2026-04-24 11:23 16.01049 -12.83820 35005 ft 435 kts 125°
2026-04-24 11:23 15.97538 -12.78695 35011 ft 435 kts 125°
2026-04-24 11:24 15.94031 -12.73573 35005 ft 435 kts 125°
2026-04-24 11:24 15.90517 -12.68451 35008 ft 435 kts 125°
2026-04-24 11:25 15.87011 -12.63329 35005 ft 435 kts 125°
2026-04-24 11:25 15.83506 -12.58210 34999 ft 435 kts 125°
2026-04-24 11:26 15.79988 -12.53090 35006 ft 435 kts 126°
2026-04-24 11:26 15.76467 -12.47976 35007 ft 435 kts 125°
2026-04-24 11:27 15.72951 -12.42857 35011 ft 435 kts 126°
2026-04-24 11:27 15.69427 -12.37745 35012 ft 435 kts 126°
2026-04-24 11:28 15.66474 -12.33465 35013 ft 435 kts 126°
2026-04-24 11:28 15.62951 -12.28362 35005 ft 435 kts 126°
2026-04-24 11:29 15.59431 -12.23253 35001 ft 435 kts 125°
2026-04-24 11:29 15.55917 -12.18144 35010 ft 435 kts 126°
2026-04-24 11:30 15.52392 -12.13040 35002 ft 435 kts 126°
2026-04-24 11:30 15.48863 -12.07944 35005 ft 435 kts 126°
2026-04-24 11:31 15.45336 -12.02849 35010 ft 435 kts 126°
2026-04-24 11:31 15.41813 -11.97753 34999 ft 435 kts 126°
2026-04-24 11:32 15.38310 -11.92691 35000 ft 435 kts 126°
2026-04-24 11:32 15.34760 -11.87562 34995 ft 435 kts 126°
2026-04-24 11:33 15.31250 -11.82510 35003 ft 435 kts 126°
2026-04-24 11:33 15.27716 -11.77421 34996 ft 435 kts 126°
2026-04-24 11:34 15.24185 -11.72333 34997 ft 435 kts 126°
2026-04-24 11:34 15.20659 -11.67244 35001 ft 435 kts 126°
2026-04-24 11:35 15.17127 -11.62155 34997 ft 435 kts 126°
2026-04-24 11:35 15.13588 -11.57073 35006 ft 435 kts 126°
2026-04-24 11:36 15.10049 -11.51986 34999 ft 435 kts 126°
2026-04-24 11:36 15.06513 -11.46901 35004 ft 435 kts 126°
2026-04-24 11:37 15.02975 -11.41819 35010 ft 435 kts 126°
2026-04-24 11:37 14.99433 -11.36747 35006 ft 435 kts 126°
2026-04-24 11:38 14.95887 -11.31674 34993 ft 435 kts 126°
2026-04-24 11:38 14.92343 -11.26597 34994 ft 435 kts 126°
2026-04-24 11:39 14.88799 -11.21518 34999 ft 436 kts 126°
2026-04-24 11:39 14.85249 -11.16443 35006 ft 436 kts 126°
2026-04-24 11:40 14.81695 -11.11368 35010 ft 436 kts 126°
2026-04-24 11:40 14.78146 -11.06298 35008 ft 435 kts 126°
2026-04-24 11:41 14.74604 -11.01226 35009 ft 435 kts 126°
2026-04-24 11:41 14.71058 -10.96155 35002 ft 435 kts 126°
2026-04-24 11:42 14.67505 -10.91096 35005 ft 435 kts 126°
2026-04-24 11:42 14.63948 -10.86044 35002 ft 435 kts 126°
2026-04-24 11:43 14.60393 -10.80992 34998 ft 435 kts 126°
2026-04-24 11:43 14.56840 -10.75936 34998 ft 435 kts 126°
2026-04-24 11:44 14.53287 -10.70879 34997 ft 435 kts 126°
2026-04-24 11:44 14.49728 -10.65827 34996 ft 435 kts 126°
2026-04-24 11:45 14.46173 -10.60777 34990 ft 435 kts 126°
2026-04-24 11:45 14.42617 -10.55722 35000 ft 435 kts 126°
2026-04-24 11:46 14.39059 -10.50670 34996 ft 435 kts 126°
2026-04-24 11:46 14.35492 -10.45620 34992 ft 436 kts 126°
2026-04-24 11:47 14.31919 -10.40569 34992 ft 436 kts 126°
2026-04-24 11:47 14.28348 -10.35515 34990 ft 436 kts 126°
2026-04-24 11:48 14.24779 -10.30460 34997 ft 436 kts 126°
2026-04-24 11:48 14.21206 -10.25405 34992 ft 436 kts 126°
2026-04-24 11:49 14.17627 -10.20348 34994 ft 436 kts 126°
2026-04-24 11:49 14.14050 -10.15292 34996 ft 437 kts 126°
2026-04-24 11:50 14.10473 -10.10242 35006 ft 436 kts 126°
2026-04-24 11:50 14.06894 -10.05196 34999 ft 436 kts 126°
2026-04-24 11:51 14.03314 -10.00152 35005 ft 436 kts 126°
2026-04-24 11:51 13.99736 -9.95117 35000 ft 436 kts 126°
2026-04-24 11:52 13.96159 -9.90081 35005 ft 436 kts 126°
2026-04-24 11:52 13.92579 -9.85040 35004 ft 436 kts 126°
2026-04-24 11:53 13.88999 -9.80003 34996 ft 436 kts 126°
2026-04-24 11:53 13.85416 -9.74965 35002 ft 436 kts 126°
2026-04-24 11:54 13.81829 -9.69930 35000 ft 436 kts 126°
2026-04-24 11:54 13.78246 -9.64892 35000 ft 436 kts 126°
2026-04-24 11:55 13.74654 -9.59858 35005 ft 437 kts 126°
2026-04-24 11:55 13.71060 -9.54823 35006 ft 436 kts 126°
2026-04-24 11:56 13.67475 -9.49789 35000 ft 436 kts 126°
2026-04-24 11:56 13.63883 -9.44755 35011 ft 437 kts 126°
2026-04-24 11:57 13.60290 -9.39714 35002 ft 437 kts 126°
2026-04-24 11:57 13.56710 -9.34710 35004 ft 437 kts 126°
2026-04-24 11:58 13.53111 -9.29681 35011 ft 437 kts 126°
2026-04-24 11:58 13.49507 -9.24650 35003 ft 437 kts 126°
2026-04-24 11:59 13.45903 -9.19618 35008 ft 437 kts 126°
2026-04-24 11:59 13.42296 -9.14583 35011 ft 437 kts 126°
2026-04-24 12:00 13.38691 -9.09549 35010 ft 437 kts 126°
2026-04-24 12:00 13.35084 -9.04516 35013 ft 438 kts 126°
2026-04-24 12:01 13.31473 -8.99484 35013 ft 437 kts 126°
2026-04-24 12:01 13.27861 -8.94462 35008 ft 437 kts 126°
2026-04-24 12:02 13.24256 -8.89438 35007 ft 437 kts 126°
2026-04-24 12:02 13.20647 -8.84410 35008 ft 437 kts 126°
2026-04-24 12:03 13.17034 -8.79387 34999 ft 437 kts 126°
2026-04-24 12:03 13.13419 -8.74365 35009 ft 438 kts 126°
2026-04-24 12:04 13.09797 -8.69342 35000 ft 438 kts 126°
2026-04-24 12:04 13.06178 -8.64324 35010 ft 438 kts 126°
2026-04-24 12:05 13.02558 -8.59308 35006 ft 437 kts 126°
2026-04-24 12:05 12.98944 -8.54292 35005 ft 437 kts 126°
2026-04-24 12:06 12.95331 -8.49276 35007 ft 437 kts 126°
2026-04-24 12:06 12.91715 -8.44264 35004 ft 437 kts 126°
2026-04-24 12:07 12.88095 -8.39250 35009 ft 437 kts 126°
2026-04-24 12:07 12.84473 -8.34242 35003 ft 438 kts 127°
2026-04-24 12:08 12.80874 -8.29216 35003 ft 437 kts 121°
2026-04-24 12:08 12.79696 -8.26361 35005 ft 436 kts 101°
2026-04-24 12:08 12.79284 -8.23292 35000 ft 435 kts 96°
2026-04-24 12:09 12.78681 -8.17115 34993 ft 436 kts 95°
2026-04-24 12:09 12.78119 -8.10923 34996 ft 437 kts 95°
2026-04-24 12:10 12.77623 -8.05775 34997 ft 437 kts 96°
2026-04-24 12:11 12.76694 -7.96476 34997 ft 438 kts 96°
2026-04-24 12:11 12.76076 -7.90275 35000 ft 438 kts 96°
2026-04-24 12:12 12.75463 -7.84074 35011 ft 438 kts 95°
2026-04-24 12:12 12.75618 -7.79931 34876 ft 437 kts 76°
2026-04-24 12:12 12.76238 -7.77974 34486 ft 436 kts 65°
2026-04-24 12:12 12.77855 -7.75370 33859 ft 433 kts 47°
2026-04-24 12:13 12.80130 -7.73421 33226 ft 421 kts 29°
2026-04-24 12:13 12.82800 -7.72326 32599 ft 409 kts 11°
2026-04-24 12:13 12.85587 -7.72169 31974 ft 397 kts 352°
2026-04-24 12:13 12.88243 -7.72784 31352 ft 388 kts 344°
2026-04-24 12:14 12.90809 -7.73549 30725 ft 380 kts 343°
2026-04-24 12:14 12.93317 -7.74315 30096 ft 373 kts 343°
2026-04-24 12:14 12.95782 -7.75069 29466 ft 366 kts 343°
2026-04-24 12:14 12.98206 -7.75812 28839 ft 361 kts 343°
2026-04-24 12:15 13.00595 -7.76544 28220 ft 356 kts 343°
2026-04-24 12:15 13.02959 -7.77269 27596 ft 353 kts 343°
2026-04-24 12:15 13.05298 -7.77987 26970 ft 349 kts 343°
2026-04-24 12:15 13.07612 -7.78697 26341 ft 345 kts 343°
2026-04-24 12:16 13.09903 -7.79400 25714 ft 342 kts 343°
2026-04-24 12:16 13.12172 -7.80096 25087 ft 339 kts 343°
2026-04-24 12:16 13.14421 -7.80786 24460 ft 335 kts 343°
2026-04-24 12:16 13.16644 -7.81468 23834 ft 332 kts 343°
2026-04-24 12:17 13.18845 -7.82143 23207 ft 329 kts 343°
2026-04-24 12:17 13.20926 -7.83053 22581 ft 324 kts 324°
2026-04-24 12:17 13.22485 -7.84677 21951 ft 319 kts 300°
2026-04-24 12:17 13.23277 -7.86776 21328 ft 316 kts 281°
2026-04-24 12:18 13.23658 -7.88997 20701 ft 316 kts 278°
2026-04-24 12:18 13.23835 -7.91259 20072 ft 322 kts 263°
2026-04-24 12:18 13.23192 -7.93468 19455 ft 328 kts 240°
2026-04-24 12:18 13.21800 -7.95334 18817 ft 333 kts 227°
2026-04-24 12:19 13.20035 -7.96897 18184 ft 339 kts 210°
2026-04-24 12:19 13.17845 -7.97790 17560 ft 343 kts 193°
2026-04-24 12:19 13.15498 -7.98322 16925 ft 347 kts 189°
2026-04-24 12:19 13.13082 -7.98340 16304 ft 351 kts 170°
2026-04-24 12:20 13.10783 -7.97516 15753 ft 351 kts 151°
2026-04-24 12:20 13.08681 -7.96309 15289 ft 339 kts 150°
2026-04-24 12:20 13.06673 -7.95137 14835 ft 326 kts 150°
2026-04-24 12:20 13.04743 -7.94006 14387 ft 314 kts 150°
2026-04-24 12:21 13.02877 -7.92911 13937 ft 304 kts 150°
2026-04-24 12:21 13.01069 -7.91852 13486 ft 295 kts 150°
2026-04-24 12:21 12.99310 -7.90823 13031 ft 287 kts 150°
2026-04-24 12:21 12.97594 -7.89824 12586 ft 280 kts 150°
2026-04-24 12:22 12.95918 -7.88847 12135 ft 274 kts 150°
2026-04-24 12:22 12.94280 -7.87891 11684 ft 268 kts 150°
2026-04-24 12:22 12.92677 -7.86953 11233 ft 263 kts 150°
2026-04-24 12:22 12.91104 -7.86035 10785 ft 257 kts 150°
2026-04-24 12:23 12.89563 -7.85135 10331 ft 253 kts 150°
2026-04-24 12:23 12.88043 -7.84248 9877 ft 253 kts 150°
2026-04-24 12:23 12.86498 -7.83348 9436 ft 257 kts 150°
2026-04-24 12:23 12.84936 -7.82440 9075 ft 257 kts 150°
2026-04-24 12:24 12.83393 -7.81543 8676 ft 252 kts 150°
2026-04-24 12:24 12.81884 -7.80665 8221 ft 247 kts 150°
2026-04-24 12:24 12.80406 -7.79805 7823 ft 240 kts 150°
2026-04-24 12:24 12.78981 -7.78977 7507 ft 231 kts 150°
2026-04-24 12:25 12.77611 -7.78183 7225 ft 222 kts 150°
2026-04-24 12:25 12.76295 -7.77420 6991 ft 210 kts 150°
2026-04-24 12:25 12.75061 -7.76722 6780 ft 198 kts 155°
2026-04-24 12:25 12.73777 -7.76256 6522 ft 195 kts 166°
2026-04-24 12:26 12.72488 -7.75937 6266 ft 186 kts 166°
2026-04-24 12:26 12.71242 -7.75623 6015 ft 183 kts 166°
2026-04-24 12:26 12.70010 -7.75313 5765 ft 182 kts 166°
2026-04-24 12:26 12.68781 -7.75018 5515 ft 182 kts 172°
2026-04-24 12:27 12.67530 -7.75044 5263 ft 179 kts 192°
2026-04-24 12:27 12.66377 -7.75490 5013 ft 177 kts 211°
2026-04-24 12:27 12.65439 -7.76284 4761 ft 175 kts 230°
2026-04-24 12:27 12.64753 -7.77301 4513 ft 173 kts 237°
2026-04-24 12:28 12.64098 -7.78323 4253 ft 170 kts 237°
2026-04-24 12:28 12.63455 -7.79322 3998 ft 166 kts 237°
2026-04-24 12:28 12.62826 -7.80297 3768 ft 163 kts 237°
2026-04-24 12:28 12.62208 -7.81255 3528 ft 158 kts 237°
2026-04-24 12:29 12.61609 -7.82187 3276 ft 155 kts 237°
2026-04-24 12:29 12.61024 -7.83096 3031 ft 152 kts 237°
2026-04-24 12:29 12.60448 -7.83993 2778 ft 150 kts 237°
2026-04-24 12:29 12.59877 -7.84883 2675 ft 150 kts 237°
2026-04-24 12:30 12.59305 -7.85771 2657 ft 150 kts 237°
2026-04-24 12:30 12.58731 -7.86662 2650 ft 150 kts 237°
2026-04-24 12:30 12.58157 -7.87552 2650 ft 150 kts 237°
2026-04-24 12:30 12.57583 -7.88441 2650 ft 150 kts 237°
2026-04-24 12:31 12.57006 -7.89335 2463 ft 150 kts 236°
2026-04-24 12:31 12.56433 -7.90224 2246 ft 149 kts 237°
2026-04-24 12:31 12.55864 -7.91107 2035 ft 148 kts 237°
2026-04-24 12:31 12.55296 -7.91989 1824 ft 148 kts 237°
2026-04-24 12:32 12.54729 -7.92866 1614 ft 148 kts 236°
2026-04-24 12:32 12.54165 -7.93743 1359 ft 147 kts 237°
2026-04-24 12:32 12.53619 -7.94608 1278 ft 144 kts 234°
2026-04-24 12:32 12.53046 -7.95437 1253 ft 134 kts 235°
2026-04-24 12:33 12.52782 -7.95870 1250 ft 33 kts 244°
2026-04-24 12:33 12.52751 -7.96013 1252 ft 12 kts 230°
2026-04-24 12:33 12.52725 -7.96001 1241 ft 10 kts 111°
2026-04-24 12:33 12.52789 -7.95870 1250 ft 24 kts 54°
2026-04-24 12:34 12.52884 -7.95728 1252 ft 24 kts 56°
2026-04-24 12:34 12.52981 -7.95580 1251 ft 25 kts 57°
2026-04-24 12:34 12.53077 -7.95430 1249 ft 25 kts 57°
2026-04-24 12:34 12.53174 -7.95278 1259 ft 25 kts 57°
2026-04-24 12:35 12.53269 -7.95128 1253 ft 25 kts 57°
2026-04-24 12:35 12.53363 -7.94981 1257 ft 25 kts 57°
2026-04-24 12:35 12.53457 -7.94834 1260 ft 25 kts 57°
2026-04-24 12:35 12.53552 -7.94686 1263 ft 25 kts 56°
2026-04-24 12:36 12.53650 -7.94536 1260 ft 25 kts 56°
2026-04-24 12:36 12.53753 -7.94386 1266 ft 25 kts 41°
2026-04-24 12:36 12.53910 -7.94410 1260 ft 25 kts 325°
2026-04-24 12:36 12.54002 -7.94518 1263 ft 13 kts 292°
2026-04-24 12:37 12.54043 -7.94547 1267 ft 5 kts 341°
2026-04-24 12:37 12.54067 -7.94554 1261 ft 0 kts 347°